Weather History for KTKI - May, 2014

Change the Weather History Date:

Thursday, May 8, 2014

  Actual Average (KADS) Record (KADS)
Temperature  
Mean Temperature 68 °F -  
Max Temperature 73 °F 80 °F 91 °F (2011)
Min Temperature 62 °F 63 °F 60 °F (2008)
Cooling Degree Days 2    
Growing Degree Days 18 (Base 50)    
Moisture  
Dew Point 65 °F    
Average Humidity 91    
Maximum Humidity 100    
Minimum Humidity 76    
Precipitation  
Precipitation 1.02 in - - ()
Sea Level Pressure  
Sea Level Pressure 29.83 in    
Wind  
Wind Speed 9 mph (SE)    
Max Wind Speed 17 mph    
Max Gust Speed 30 mph    
Visibility 7 miles    
Events Rain , Thunderstorm    
Averages and records for this station are not official NWS values.
T = Trace of Precipitation, MM = Missing Value Source: NWS Daily Summary

Daily Weather History Graph

Daily Weather History Graph

Search for Another Location

Airport or City:

Trip Planner

Search our weather history database for the weather conditions in past years. The results will help you decide how hot, cold, wet, or windy it might be!

Date:

Astronomy

May. 08, 2014 Rise Set
Actual Time 6:32 AM CDT 8:14 PM CDT
Civil Twilight 6:05 AM CDT 8:40 PM CDT
Nautical Twilight 5:32 AM CDT 9:13 PM CDT
Astronomical Twilight 4:58 AM CDT 9:47 PM CDT
Moon 2:34 PM CDT (5/8) 2:44 AM CDT (5/8)
Length of Visible Light 14h 35m
Length of Day
13h 42m
Waxing Gibbous, 65% of the Moon is Illuminated
May 8
Waxing Gibbous
May 14
Full
May 21
Last Quarter
May 28
New
Jun 5
First Quarter

Hourly Weather History & Observations

Time (CDT) Temp. Dew Point Humidity Pressure Visibility Wind Dir Wind Speed Gust Speed Precip Events Conditions
12:53 AM 73.0 °F 64.9 °F 76% 29.84 in 10.0 mi South 16.1 mph - N/A   Partly Cloudy
1:20 AM 73.4 °F 66.2 °F 78% 29.91 in 10.0 mi SW 10.4 mph - N/A   Mostly Cloudy
1:40 AM 73.4 °F 66.2 °F 78% 29.90 in 10.0 mi South 9.2 mph - N/A   Overcast
1:53 AM 73.9 °F 66.0 °F 76% 29.87 in 10.0 mi South 11.5 mph - N/A   Overcast
2:53 AM 73.0 °F 66.0 °F 79% 29.84 in 10.0 mi South 8.1 mph - N/A   Overcast
3:53 AM 71.1 °F 66.0 °F 84% 29.82 in 10.0 mi SE 6.9 mph - N/A   Mostly Cloudy
4:53 AM 70.0 °F 66.0 °F 87% 29.81 in 10.0 mi SE 6.9 mph - N/A   Overcast
5:53 AM 70.0 °F 66.9 °F 90% 29.80 in 9.0 mi SE 8.1 mph - N/A   Partly Cloudy
6:26 AM 69.8 °F 66.2 °F 88% 29.79 in 7.0 mi ESE 9.2 mph - N/A   Mostly Cloudy
6:53 AM 71.1 °F 68.0 °F 90% 29.79 in 5.0 mi SE 13.8 mph - N/A   Mostly Cloudy
6:55 AM 71.6 °F 68.0 °F 88% 29.81 in 5.0 mi SE 13.8 mph - N/A   Mostly Cloudy
7:53 AM 72.0 °F 68.0 °F 87% 29.86 in 8.0 mi South 5.8 mph - N/A   Overcast
8:21 AM 73.4 °F 69.8 °F 88% 29.85 in 8.0 mi SSE 11.5 mph - 0.00 in Rain Light Rain
8:29 AM 73.4 °F 69.8 °F 88% 29.85 in 8.0 mi SSE 13.8 mph - 0.00 in Rain Light Rain
8:53 AM 73.0 °F 69.1 °F 87% 29.83 in 6.0 mi SSE 9.2 mph - 0.00 in Rain Light Rain
9:47 AM 73.4 °F 69.8 °F 88% 29.83 in 5.0 mi SSE 8.1 mph - 0.00 in Rain Light Rain
9:53 AM 73.0 °F 70.0 °F 90% 29.82 in 5.0 mi South 8.1 mph - 0.01 in Rain Light Rain
10:22 AM 64.4 °F 62.6 °F 94% 29.85 in 2.5 mi NW 17.3 mph 29.9 mph 0.07 in Rain Heavy Rain
10:36 AM 64.4 °F 62.6 °F 94% 29.83 in 3.0 mi North 8.1 mph - 0.16 in Rain Heavy Rain
10:53 AM 64.0 °F 62.1 °F 93% 29.85 in 4.0 mi ENE 3.5 mph - 0.19 in Rain Rain
10:59 AM 64.4 °F 62.6 °F 94% 29.84 in 2.5 mi ENE 5.8 mph - 0.03 in Rain Heavy Rain
11:02 AM 64.4 °F 62.6 °F 94% 29.84 in 3.0 mi ENE 5.8 mph - 0.04 in Rain Heavy Rain
11:08 AM 64.4 °F 62.6 °F 94% 29.85 in 3.0 mi ENE 5.8 mph - 0.06 in Rain Rain
11:28 AM 64.4 °F 62.6 °F 94% 29.84 in 3.0 mi ENE 6.9 mph - 0.08 in Rain Light Rain
11:40 AM 64.4 °F 62.6 °F 94% 29.83 in 7.0 mi ENE 8.1 mph - 0.09 in Rain Rain
11:47 AM 64.4 °F 62.6 °F 94% 29.84 in 8.0 mi East 6.9 mph - 0.10 in Rain Light Rain
11:53 AM 64.0 °F 62.1 °F 93% 29.83 in 10.0 mi East 6.9 mph - 0.10 in Rain Light Rain
12:18 PM 64.4 °F 62.6 °F 94% 29.85 in 5.0 mi Calm Calm - 0.02 in Rain Rain
12:22 PM 64.4 °F 62.6 °F 94% 29.85 in 1.8 mi East 5.8 mph - 0.12 in Rain Heavy Rain
12:34 PM 62.6 °F 62.6 °F 100% 29.84 in 1.5 mi East 10.4 mph - 0.44 in Rain Heavy Rain
12:53 PM 64.0 °F 63.0 °F 96% 29.84 in 2.0 mi NNE 3.5 mph - 0.55 in Rain Rain
12:56 PM 64.4 °F 62.6 °F 94% 29.84 in 3.0 mi NE 4.6 mph - 0.01 in Rain Heavy Rain
1:34 PM 66.2 °F 64.4 °F 94% 29.83 in 10.0 mi ENE 8.1 mph - 0.01 in   Overcast
1:41 PM 66.2 °F 64.4 °F 94% 29.83 in 10.0 mi ENE 6.9 mph - 0.01 in   Overcast
1:53 PM 66.9 °F 64.9 °F 93% 29.83 in 10.0 mi Calm Calm - 0.01 in   Overcast
1:58 PM 66.2 °F 64.4 °F 94% 29.83 in 10.0 mi Calm Calm - N/A   Overcast
2:53 PM 69.1 °F 68.0 °F 96% 29.79 in 6.0 mi Calm Calm - N/A   Overcast
3:53 PM 71.1 °F 69.1 °F 93% 29.77 in 4.0 mi SE 11.5 mph 20.7 mph 0.02 in Rain Rain
4:02 PM 71.6 °F 68.0 °F 88% 29.79 in 4.0 mi SSW 9.2 mph 17.3 mph 0.02 in Rain Rain
4:04 PM 69.8 °F 66.2 °F 88% 29.78 in 3.0 mi SSW 12.7 mph - 0.03 in Rain , Thunderstorm Heavy Rain
4:34 PM 64.4 °F 60.8 °F 88% 29.78 in 10.0 mi South 15.0 mph 20.7 mph 0.08 in Rain Light Rain
4:53 PM 64.9 °F 63.0 °F 93% 29.80 in 10.0 mi South 11.5 mph - 0.08 in Rain Light Rain
5:25 PM 64.4 °F 62.6 °F 94% 29.85 in 10.0 mi SW 16.1 mph - 0.02 in Rain Light Rain
5:53 PM 64.9 °F 63.0 °F 93% 29.73 in 5.0 mi SE 8.1 mph - 0.04 in Rain Rain
6:53 PM 64.9 °F 63.0 °F 93% 29.81 in 10.0 mi SSW 10.4 mph - 0.02 in   Overcast
7:29 PM 64.4 °F 62.6 °F 94% 29.81 in 8.0 mi South 6.9 mph - N/A   Partly Cloudy
7:53 PM 64.0 °F 63.0 °F 96% 29.81 in 7.0 mi SSE 8.1 mph - N/A   Clear
8:53 PM 64.9 °F 64.0 °F 97% 29.81 in 9.0 mi SE 5.8 mph - N/A   Clear
9:03 PM 64.4 °F 64.4 °F 100% 29.82 in 7.0 mi North - - N/A   Scattered Clouds
9:21 PM 64.4 °F 64.4 °F 100% 29.82 in 8.0 mi North - - N/A   Mostly Cloudy
9:53 PM 64.9 °F 64.0 °F 97% 29.85 in 8.0 mi SE 5.8 mph - N/A   Mostly Cloudy
10:04 PM 64.4 °F 64.4 °F 100% 29.85 in 8.0 mi SSE 8.1 mph - N/A   Scattered Clouds
10:53 PM 64.9 °F 63.0 °F 93% 29.86 in 10.0 mi SSE 8.1 mph - N/A   Clear
11:53 PM 64.9 °F 63.0 °F 93% 29.86 in 10.0 mi North - - N/A   Clear